Orbital Elements at Epoch 2459200.5 (2020-Dec-17.0) TDB
Reference: JPL 17 (heliocentric ecliptic J2000)
Element | Value | Uncertainty (1-sigma) | Units |
e | .09142777148066557 | 7.2244e-08 | |
a | 2.575526068362713 | 2.1909e-08 | au |
q | 2.34005145954195 | 1.874e-07 | au |
i | 4.193712267316053 | 7.0436e-06 | deg |
node | 69.13730243744317 | 7.9068e-05 | deg |
peri | 345.8654988747393 | 8.5398e-05 | deg |
M | 265.9257177314007 | 3.1299e-05 | deg |
tp | 2459595.017038770134 (2022-Jan-15.51703877) | 0.0001324 | TDB |
period | 1509.723279649773 4.13 | 1.9264e-05 5.274e-08 | d yr |
n | .2384542948052792 | 3.0426e-09 | deg/d |
Q | 2.811000677183476 | 2.3912e-08 | au |
|
| | Orbit Determination Parameters
Additional Information
|